Helicity
30 55 54 54 50 40 32 43 50 55 63 71 73 74 74 67 64 69 72 75 78 75 73 70 65 66 73 77 87 98 81 69 26 26 30 28 20 21 23 31 19 35 57
61 56 51 50 41 35 50 56 58 62 71 73 73 74 64 57 56 54 56 58 63 60 55 53 54 51 55 62 73 84 80 79 69 58 25 19 33 34 34 29 26 27 46
50 75 60 50 45 56 68 73 75 79 82 79 70 55 54 57 59 60 62 59 56 56 57 56 52 49 51 54 63 76 73 76 75 56 29 24 38 59 48 38 29 23 18
49 53 64 53 64 73 70 73 80 87 88 82 71 59 56 56 58 62 55 51 50 48 49 49 51 54 56 62 75 76 71 76 79 57 43 43 51 82 59 46 35 30 29
51 58 89 70 77 77 78 83 90 91 93 87 82 71 63 58 57 59 56 49 49 53 55 53 52 59 64 69 69 67 62 63 73 46 61 66 78 85 75 55 42 38 39
61 79 75 75 76 81 87 90 95 100 96 94 83 84 78 66 59 59 50 46 45 47 47 47 51 54 59 61 61 57 54 59 72 67 53 62 52 112 88 74 57 42 43
61 86 61 71 81 87 88 93 95 97 103 101 95 84 80 75 71 64 72 69 60 51 43 41 42 43 42 41 39 39 40 44 42 42 50 61 55 77 63 60 61 66 52
68 54 76 77 82 93 94 96 95 99 98 98 96 89 83 80 82 77 70 64 59 53 52 50 44 43 44 40 39 38 39 41 40 39 48 54 79 65 59 58 54 52 63
73 62 73 78 88 106 103 106 104 105 106 104 98 92 86 84 78 74 65 60 52 45 38 36 32 29 26 25 31 37 38 33 30 32 46 56 96 70 59 55 54 51 58
62 62 67 81 57 68 87 117 122 117 117 110 97 87 69 65 59 66 45 69 47 38 33 30 28 27 21 13 13 20 19 13 18 51 52 65 91 61 49 48 33 32 42
52 61 73 74 74 78 96 118 123 127 117 102 86 69 42 48 57 49 81 49 40 35 30 29 28 27 13 -7 1 8 6 18 37 48 56 98 70 53 46 43 39 40 52
61 70 69 72 78 76 81 101 77 106 68 78 73 67 52 64 68 46 53 45 35 32 26 35 34 19 11 32 28 14 27 30 43 50 58 93 54 46 46 44 48 53 57
62 75 78 86 87 76 88 90 89 83 79 82 78 72 63 50 41 44 41 49 43 49 44 43 35 39 38 33 32 30 30 37 43 50 63 71 51 47 46 47 52 55 61
82 90 94 100 93 92 99 90 96 87 87 87 85 62 50 49 44 51 57 54 50 48 47 48 49 38 31 34 36 35 37 40 40 43 53 63 56 54 53 53 52 56 51
93 98 98 99 87 95 93 106 96 99 106 112 70 54 46 48 44 53 48 50 50 51 51 46 47 53 43 40 45 41 42 35 34 43 44 62 57 63 68 60 59 56 51
92 108 108 92 99 112 109 100 109 121 108 86 61 52 44 38 40 43 42 55 53 56 50 44 41 48 45 47 45 48 40 37 42 40 38 43 55 62 86 104 109 105 101
107 128 115 116 115 116 124 119 121 109 90 80 62 47 42 36 38 45 52 58 64 54 43 46 34 44 51 49 43 48 42 47 44 42 40 43 51 60 76 82 83 89 84
142 136 135 136 128 131 133 133 117 96 86 74 55 44 45 40 40 44 56 58 68 49 48 54 45 41 48 41 38 43 44 46 48 48 40 52 61 64 70 63 68 78 87
148 145 158 151 156 155 149 129 112 110 98 87 51 53 53 41 46 48 58 59 63 55 51 55 50 49 43 38 32 43 44 45 45 49 53 49 59 61 51 50 46 65 82
158 161 174 177 178 172 165 139 126 112 88 75 60 61 49 49 50 55 50 55 64 60 58 55 46 50 42 36 22 36 47 44 46 49 43 42 50 53 50 49 46 48 58
184 195 194 198 199 187 165 138 119 104 91 78 64 62 53 54 53 53 50 58 64 63 68 52 50 42 38 30 27 30 52 44 48 41 42 44 45 39 38 44 44 41 43
190 215 219 209 201 184 156 134 127 118 97 88 74 63 59 51 53 43 44 56 69 65 65 60 54 42 42 46 36 29 38 51 47 68 48 47 44 37 38 35 31 31 34
183 218 228 220 209 160 125 118 115 112 91 78 67 62 58 46 51 45 43 45 57 60 59 58 52 46 40 45 53 41 46 78 41 74 42 42 39 40 41 33 32 31 30
163 218 227 199 153 111 101 101 104 101 98 100 94 80 62 56 55 50 45 47 50 59 50 50 51 46 46 45 41 57 52 55 61 55 47 56 36 40 40 38 37 43 45
142 143 146 131 103 96 91 92 102 85 88 100 95 76 67 62 57 57 50 53 53 58 50 46 44 43 46 49 50 49 44 44 42 50 44 61 47 71 49 46 47 50 71
123 101 99 93 90 84 79 81 76 80 99 105 92 84 82 76 71 65 55 51 54 54 51 46 45 41 41 50 47 46 48 58 58 58 56 48 47 46 55 48 56 73 74
Wind_Speed
43 44 44 42 40 38 36 38 40 42 43 45 46 47 48 49 49 50 50 50 49 48 47 47 47 47 47 48 48 48 47 46 36 35 36 36 35 37 35 34 32 33 32
43 43 42 40 39 37 39 39 39 41 43 45 46 47 48 49 50 51 52 52 50 49 47 46 46 46 46 48 48 48 48 47 47 44 31 28 22 27 32 29 28 29 39
41 39 40 39 37 37 38 38 39 40 42 44 46 47 47 48 49 50 50 51 50 49 48 48 48 47 47 47 48 48 48 49 50 49 42 28 27 25 31 32 30 28 27
38 38 37 38 37 37 36 38 40 41 42 44 46 47 47 48 48 49 51 51 50 50 49 49 49 49 49 49 48 49 49 51 54 52 43 33 37 29 32 33 33 30 34
36 36 34 36 36 35 36 37 39 41 42 43 45 46 46 46 48 49 51 50 51 50 50 50 49 49 50 51 51 51 51 52 53 47 43 43 41 39 39 39 37 35 35
31 30 33 33 33 34 35 37 39 41 42 44 44 46 46 46 47 48 49 48 48 49 49 49 49 50 52 52 53 53 53 54 55 47 43 42 43 45 48 47 46 42 41
28 27 29 30 31 32 33 35 38 40 42 43 45 45 47 47 48 49 49 49 49 50 50 50 50 51 51 52 53 52 52 53 51 47 45 45 44 48 51 49 48 48 45
24 25 26 27 28 30 31 34 37 40 41 43 44 45 45 46 46 46 46 47 47 48 49 49 51 52 53 54 54 54 54 54 53 50 45 46 45 48 50 51 50 51 51
20 22 23 24 26 29 31 33 36 38 40 42 43 44 44 45 45 44 44 47 47 48 47 48 49 51 52 54 55 57 58 57 53 48 50 47 46 50 50 49 49 50 51
16 18 20 22 22 25 28 32 35 37 39 40 42 43 41 40 42 44 46 49 47 47 47 47 50 52 54 54 53 54 58 58 47 52 48 45 49 52 51 50 48 49 50
12 15 18 20 23 25 27 31 33 36 37 38 40 41 37 39 42 42 45 46 47 47 46 48 50 52 54 53 49 53 55 49 52 49 47 44 51 52 50 49 48 49 51
9 13 17 20 23 25 28 30 32 35 36 38 40 41 41 43 44 43 40 42 42 46 42 45 45 46 49 56 55 54 53 55 52 47 44 44 49 48 47 46 48 49 51
11 14 18 21 25 27 30 33 34 35 37 39 40 40 41 41 41 40 42 44 47 44 48 48 48 48 50 52 53 54 55 54 50 47 44 45 47 46 44 45 46 48 46
13 16 19 23 25 29 32 33 34 35 36 39 40 40 41 42 41 43 45 46 47 49 49 48 46 43 43 49 53 55 56 55 51 48 45 43 47 46 46 45 46 47 42
14 16 20 23 26 30 32 33 33 35 37 40 38 39 40 41 42 44 45 46 48 49 50 49 48 49 50 51 53 54 55 51 48 44 42 39 42 45 47 47 45 43 39
16 18 21 25 28 30 31 31 34 36 37 37 37 38 39 40 42 44 44 46 47 48 49 51 53 53 50 50 50 51 50 46 43 41 38 36 38 41 45 46 45 45 48
18 20 22 25 27 28 30 32 34 33 34 36 36 37 39 41 42 43 43 42 44 47 49 48 54 55 54 51 50 47 47 47 42 39 38 38 37 35 41 43 44 47 51
20 21 22 25 26 26 30 33 32 32 34 35 37 39 40 41 42 42 43 42 44 45 49 49 50 56 56 53 51 48 46 45 44 41 38 39 43 43 36 44 43 47 51
19 21 23 25 25 26 29 31 31 30 30 33 37 39 40 41 41 42 41 40 41 44 47 47 47 50 52 50 47 42 42 42 42 41 40 39 41 42 43 41 41 43 48
20 21 23 25 25 26 30 30 31 29 30 34 36 37 39 41 42 42 41 39 42 42 46 49 47 48 43 48 42 37 38 39 39 40 40 39 41 43 44 44 44 40 43
23 24 24 24 23 26 28 30 28 28 32 33 33 37 38 40 43 43 41 40 40 42 45 49 49 48 52 55 42 40 30 34 37 38 38 38 41 42 44 45 44 43 40
29 26 25 24 23 25 28 29 29 30 33 35 34 35 38 40 42 39 38 38 37 39 41 45 48 50 48 51 51 41 44 33 34 36 38 38 39 42 44 43 42 43 38
32 27 24 23 23 24 24 25 27 32 33 32 31 33 37 39 39 39 39 38 36 36 39 40 42 45 47 46 47 44 43 43 51 34 35 39 40 43 44 43 38 37 36
31 25 22 20 21 20 20 23 26 30 32 32 32 35 37 37 38 38 38 37 36 35 36 38 39 41 42 45 42 40 38 39 42 41 35 37 40 45 46 43 39 32 32
24 21 17 18 18 20 22 26 28 30 32 32 33 38 37 38 37 37 38 38 36 35 36 38 41 41 42 42 44 44 41 38 35 37 40 43 46 39 45 44 40 34 31
19 17 15 16 18 21 24 25 28 32 33 35 35 39 39 38 37 35 36 37 36 36 37 39 40 40 41 43 42 41 41 42 43 42 46 49 50 43 43 42 41 36 31
Wind_Direction
108 105 109 108 105 100 93 76 59 44 33 25 17 14 6 1 358 357 356 354 352 352 351 351 349 347 345 338 336 335 336 339 2 1 359 2 4 358 355 354 355 357 354
103 106 104 100 99 92 81 72 64 53 39 28 22 18 8 360 357 353 350 350 351 349 348 347 347 348 345 338 335 335 335 336 336 339 1 9 26 14 2 4 358 351 339
97 92 100 99 95 81 74 69 63 57 47 34 23 21 19 11 5 1 359 356 354 351 346 343 343 345 345 342 337 335 338 332 326 328 340 357 358 5 354 350 354 354 356
90 91 89 97 88 78 68 61 55 51 48 40 28 20 18 16 10 3 357 354 351 348 346 344 343 343 343 343 342 339 337 331 321 324 336 347 339 351 347 344 342 346 343
87 83 71 85 80 73 66 58 50 45 42 40 33 26 22 18 11 4 356 352 350 347 345 345 345 344 342 341 339 338 335 333 326 329 332 331 331 335 335 334 333 333 333
81 67 71 73 71 65 59 52 45 40 37 35 33 26 21 17 14 9 3 358 355 353 351 350 347 344 341 339 337 336 335 332 327 331 331 330 329 326 324 323 323 322 322
81 54 69 66 65 60 53 45 40 36 33 30 28 24 17 14 11 7 5 2 356 352 349 348 346 344 342 340 338 337 336 333 332 331 330 329 327 324 321 320 319 318 319
71 69 62 60 57 52 46 38 32 29 28 25 23 23 18 13 13 12 9 6 2 359 355 352 348 344 341 338 335 333 332 330 328 327 329 328 328 326 323 320 318 315 313
55 62 57 57 49 41 35 30 26 25 24 21 19 20 17 12 11 11 10 6 3 1 359 356 351 347 343 337 332 328 325 325 325 326 324 325 328 326 325 324 322 318 314
41 46 45 46 48 41 31 23 20 20 20 18 16 16 17 15 12 10 7 3 4 4 2 358 353 347 341 337 335 331 326 322 328 324 327 328 326 324 324 324 324 321 319
24 30 29 30 25 22 22 18 16 15 15 15 13 12 16 12 9 9 6 7 5 4 3 360 355 350 344 339 337 335 331 332 328 328 329 331 328 326 324 324 324 322 319
12 14 14 15 14 13 11 10 9 8 9 9 8 8 8 5 5 6 11 10 9 6 5 3 0 357 352 341 337 337 335 331 330 332 333 334 331 330 328 327 325 322 320
348 354 359 3 1 3 2 3 3 4 4 4 7 7 6 6 6 9 8 6 4 6 3 3 1 1 357 351 345 341 337 334 334 335 334 336 334 333 332 330 327 324 326
333 343 352 356 359 357 357 359 360 1 4 2 4 6 4 3 5 4 3 3 3 2 1 2 4 8 7 357 348 342 337 334 333 332 334 339 337 337 333 332 329 329 331
328 340 348 352 352 353 353 357 360 360 360 360 3 2 3 4 3 2 3 2 0 359 359 360 0 0 358 355 350 346 342 341 340 341 341 348 346 340 335 332 335 338 340
323 334 342 345 347 350 353 356 357 357 358 359 2 2 3 3 2 1 1 1 1 0 359 356 353 353 357 358 357 354 352 353 353 351 351 352 353 348 340 342 346 347 342
319 329 336 341 346 348 352 353 355 0 1 359 359 1 1 1 0 0 2 5 3 1 359 1 350 349 352 357 357 359 358 358 0 0 358 354 357 358 352 350 352 349 346
316 323 333 338 342 348 349 351 357 357 357 358 356 355 358 360 1 1 2 4 4 2 359 3 360 348 349 353 356 359 2 4 3 3 4 1 350 347 3 358 356 353 353
313 320 325 332 340 345 348 352 356 3 1 359 353 355 358 360 1 1 3 8 8 6 2 5 6 1 357 359 1 8 11 11 10 7 6 7 2 358 357 3 6 5 1
311 317 323 327 333 339 344 347 351 357 356 353 355 358 359 1 2 3 5 9 7 8 3 2 7 6 12 3 8 16 18 17 17 12 9 9 3 358 357 0 2 8 13
307 310 314 320 329 335 338 340 346 351 348 351 356 357 0 1 0 1 5 6 8 8 4 360 2 2 354 349 7 8 22 23 17 12 13 9 3 358 356 356 1 2 12
300 303 308 315 323 329 335 338 344 347 344 347 351 356 357 357 358 4 6 8 10 9 9 5 360 357 358 355 352 2 1 13 16 11 10 9 5 357 353 357 1 0 13
297 299 303 311 319 326 334 341 343 340 341 345 351 355 353 355 359 2 4 6 9 12 9 10 7 3 358 1 1 2 360 359 353 12 9 4 3 355 354 354 359 2 9
300 303 304 311 318 329 336 336 335 336 337 343 349 348 350 353 355 359 1 4 5 8 9 7 9 6 5 360 5 9 9 4 1 4 11 7 3 353 351 357 1 6 6
307 308 310 315 322 330 330 328 330 330 333 340 344 338 344 347 351 355 356 357 0 2 1 1 358 358 358 358 357 357 360 2 4 2 358 355 352 358 349 351 358 5 7
322 321 319 321 326 328 327 326 325 325 328 332 335 335 338 342 347 350 351 353 355 354 353 352 353 352 352 351 352 354 355 355 353 353 348 345 343 349 348 347 349 357 4